JRR157F EPWA-EBLG

Flight info

Callsign JRR157F
Flight time N/A
Altitude 40000
Route LOLSI T174 KORUP/N0424F300 T174 TADUV/N0381F240 Q230 WRB DCT NVO M170 LNO
Aircraft B77L/H-SDE1E2E3FGHIJ2J3J4J5M1RWXY/LB1D1

Departure

Time 2026-04-30 21:38
Airport Warsaw Chopin Airport (EPWA)

Arrival

Time N/A
Airport Liège Airport (EBLG)
Time Latitude Longitude Altitude Speed Heading
2026-04-30 21:06 52.15570 20.98123 343 ft 0 kts 62°
2026-04-30 21:31 52.15553 20.98070 354 ft 4 kts 62°
2026-04-30 21:31 52.15520 20.98031 354 ft 4 kts 335°
2026-04-30 21:32 52.15497 20.98052 354 ft 0 kts 332°
2026-04-30 21:35 52.15510 20.98040 354 ft 10 kts 332°
2026-04-30 21:35 52.15584 20.97998 353 ft 11 kts
2026-04-30 21:36 52.15660 20.98047 348 ft 13 kts 25°
2026-04-30 21:36 52.15743 20.98110 348 ft 14 kts 24°
2026-04-30 21:37 52.16029 20.98321 349 ft 13 kts 24°
2026-04-30 21:37 52.16081 20.98359 353 ft 5 kts 23°
2026-04-30 21:37 52.16116 20.98345 348 ft 6 kts 307°
2026-04-30 21:37 52.16140 20.98258 345 ft 17 kts 294°
2026-04-30 21:38 52.16263 20.97818 351 ft 81 kts 295°
2026-04-30 21:38 52.16618 20.96549 357 ft 161 kts 294°
2026-04-30 21:38 52.17141 20.94734 819 ft 183 kts 296°
2026-04-30 21:38 52.17680 20.92920 1991 ft 171 kts 298°
2026-04-30 21:39 52.18179 20.91159 2993 ft 173 kts 289°
2026-04-30 21:39 52.18196 20.89158 3754 ft 185 kts 269°
2026-04-30 21:39 52.18087 20.86873 4028 ft 224 kts 271°
2026-04-30 21:39 52.17986 20.84210 3984 ft 240 kts 271°
2026-04-30 21:40 52.18113 20.81572 4102 ft 237 kts 289°
2026-04-30 21:40 52.18568 20.78937 4935 ft 246 kts 289°
2026-04-30 21:40 52.18977 20.76190 5714 ft 252 kts 288°
2026-04-30 21:40 52.19372 20.73399 6397 ft 252 kts 288°
2026-04-30 21:41 52.19672 20.70554 7328 ft 261 kts 274°
2026-04-30 21:41 52.19235 20.67565 8070 ft 281 kts 253°
2026-04-30 21:41 52.18519 20.64534 8986 ft 291 kts 254°
2026-04-30 21:41 52.17808 20.61392 9997 ft 298 kts 254°
2026-04-30 21:42 52.17087 20.58156 10795 ft 311 kts 255°
2026-04-30 21:42 52.16322 20.54693 11158 ft 341 kts 254°
2026-04-30 21:42 52.15519 20.50940 11376 ft 368 kts 258°
2026-04-30 21:42 52.15227 20.46780 11904 ft 370 kts 277°
2026-04-30 21:43 52.15446 20.42539 12647 ft 380 kts 280°
2026-04-30 21:43 52.15689 20.38212 13659 ft 387 kts 280°
2026-04-30 21:43 52.15912 20.33816 14677 ft 392 kts 280°
2026-04-30 21:43 52.16117 20.29348 15586 ft 399 kts 279°
2026-04-30 21:44 52.16309 20.24802 16483 ft 406 kts 279°
2026-04-30 21:44 52.16493 20.20174 17370 ft 413 kts 279°
2026-04-30 21:44 52.16674 20.15472 18267 ft 419 kts 279°
2026-04-30 21:44 52.16853 20.10696 19085 ft 426 kts 279°
2026-04-30 21:45 52.17032 20.05851 19848 ft 432 kts 279°
2026-04-30 21:45 52.17210 20.00932 20634 ft 438 kts 279°
2026-04-30 21:45 52.17392 19.95949 21415 ft 443 kts 280°
2026-04-30 21:45 52.17576 19.90906 22192 ft 449 kts 281°
2026-04-30 21:46 52.17708 19.85775 22947 ft 457 kts 276°
2026-04-30 21:46 52.17413 19.80518 23578 ft 473 kts 268°
2026-04-30 21:46 52.16876 19.75186 24247 ft 481 kts 267°
2026-04-30 21:46 52.16302 19.69782 24901 ft 486 kts 267°
2026-04-30 21:47 52.15747 19.64332 25581 ft 490 kts 268°
2026-04-30 21:47 52.15220 19.58824 26225 ft 495 kts 268°
2026-04-30 21:47 52.14711 19.53246 26860 ft 500 kts 269°
2026-04-30 21:47 52.14207 19.47616 27489 ft 506 kts 269°
2026-04-30 21:48 52.13701 19.41976 28104 ft 512 kts 269°
2026-04-30 21:48 52.13179 19.36216 28740 ft 517 kts 268°
2026-04-30 21:48 52.12645 19.30392 29339 ft 524 kts 268°
2026-04-30 21:48 52.12101 19.24506 29927 ft 530 kts 268°
2026-04-30 21:49 52.11543 19.18542 30511 ft 535 kts 268°
2026-04-30 21:49 52.10976 19.12545 31026 ft 538 kts 268°
2026-04-30 21:49 52.10400 19.06510 31546 ft 541 kts 268°
2026-04-30 21:49 52.09818 19.00465 32176 ft 540 kts 268°
2026-04-30 21:50 52.09233 18.94456 33017 ft 533 kts 268°
2026-04-30 21:50 52.08656 18.88559 33943 ft 526 kts 268°
2026-04-30 21:50 52.08082 18.82693 34605 ft 525 kts 268°
2026-04-30 21:50 52.07512 18.76838 35105 ft 525 kts 268°
2026-04-30 21:51 52.06938 18.70977 35638 ft 523 kts 268°
2026-04-30 21:51 52.06362 18.65139 36243 ft 520 kts 268°
2026-04-30 21:51 52.05793 18.59421 36845 ft 517 kts 267°
2026-04-30 21:51 52.05219 18.53675 37426 ft 515 kts 267°
2026-04-30 21:52 52.04642 18.47941 37971 ft 513 kts 267°
2026-04-30 21:52 52.04066 18.42229 38459 ft 511 kts 266°
2026-04-30 21:52 52.03490 18.36551 39013 ft 509 kts 266°
2026-04-30 21:52 52.02911 18.30880 39419 ft 507 kts 266°
2026-04-30 21:53 52.02332 18.25232 39774 ft 507 kts 266°
2026-04-30 21:53 52.01751 18.19595 40116 ft 506 kts 266°
2026-04-30 21:53 52.01165 18.13947 40424 ft 507 kts 265°
2026-04-30 21:53 52.00575 18.08274 40389 ft 511 kts 265°
2026-04-30 21:54 51.99379 17.96906 40395 ft 509 kts 265°
2026-04-30 21:54 51.98127 17.85687 40368 ft 503 kts 265°
2026-04-30 21:55 51.96852 17.74546 40399 ft 502 kts 265°
2026-04-30 21:55 51.95572 17.63429 40404 ft 502 kts 264°
2026-04-30 21:56 51.94285 17.52301 40403 ft 502 kts 264°
2026-04-30 21:56 51.92995 17.41229 40412 ft 504 kts 264°
2026-04-30 21:57 51.91682 17.30065 40388 ft 505 kts 264°
2026-04-30 21:57 51.90355 17.18882 40407 ft 506 kts 264°
2026-04-30 21:58 51.89013 17.07676 40415 ft 507 kts 264°
2026-04-30 21:58 51.87659 16.96463 40413 ft 508 kts 264°
2026-04-30 21:59 51.86300 16.85300 40412 ft 508 kts 264°
2026-04-30 22:00 51.84231 16.68490 40410 ft 507 kts 264°
2026-04-30 22:00 51.82144 16.51733 40416 ft 506 kts 263°
2026-04-30 22:01 51.80741 16.40588 40418 ft 506 kts 263°
2026-04-30 22:01 51.79329 16.29461 40413 ft 505 kts 263°
2026-04-30 22:02 51.78147 16.20216 40390 ft 505 kts 263°
2026-04-30 22:02 51.76719 16.09134 40411 ft 503 kts 263°
2026-04-30 22:03 51.75284 15.98088 40419 ft 503 kts 263°
2026-04-30 22:03 51.73838 15.87052 40420 ft 502 kts 263°
2026-04-30 22:04 51.72386 15.76036 40423 ft 502 kts 263°
2026-04-30 22:05 51.70188 15.59527 40414 ft 502 kts 263°
2026-04-30 22:05 51.68708 15.48551 40419 ft 501 kts 262°
2026-04-30 22:05 51.67960 15.43032 39999 ft 508 kts 263°
2026-04-30 22:06 51.67199 15.37432 39295 ft 512 kts 263°
2026-04-30 22:06 51.65661 15.26242 37624 ft 511 kts 263°
2026-04-30 22:06 51.64889 15.20656 36837 ft 510 kts 263°
2026-04-30 22:07 51.64128 15.15166 36009 ft 510 kts 262°
2026-04-30 22:07 51.63353 15.09584 35042 ft 512 kts 262°
2026-04-30 22:07 51.62571 15.03980 34026 ft 514 kts 262°
2026-04-30 22:07 51.61786 14.98384 33293 ft 510 kts 262°
2026-04-30 22:08 51.61005 14.92856 32616 ft 504 kts 262°
2026-04-30 22:08 51.60229 14.87364 31969 ft 505 kts 262°
2026-04-30 22:08 51.59437 14.81708 31333 ft 531 kts 262°
2026-04-30 22:08 51.58623 14.75927 30765 ft 526 kts 262°
2026-04-30 22:09 51.57995 14.70224 30549 ft 505 kts 268°
2026-04-30 22:09 51.57657 14.64705 30413 ft 488 kts 270°
2026-04-30 22:09 51.57062 14.53917 30418 ft 478 kts 270°
2026-04-30 22:10 51.56424 14.43391 30405 ft 470 kts 269°
2026-04-30 22:10 51.56091 14.38184 29998 ft 465 kts 269°
2026-04-30 22:10 51.55759 14.33034 29452 ft 461 kts 269°
2026-04-30 22:11 51.55106 14.22917 29188 ft 468 kts 269°
2026-04-30 22:11 51.54774 14.17620 29096 ft 483 kts 269°
2026-04-30 22:11 51.54431 14.12236 28971 ft 487 kts 269°
2026-04-30 22:12 51.54079 14.06831 28834 ft 486 kts 269°
2026-04-30 22:12 51.53722 14.01446 28697 ft 484 kts 269°
2026-04-30 22:12 51.53363 13.96067 28555 ft 483 kts 269°
2026-04-30 22:12 51.53005 13.90715 28418 ft 481 kts 269°
2026-04-30 22:13 51.52645 13.85366 28283 ft 480 kts 269°
2026-04-30 22:13 51.52284 13.80040 28147 ft 479 kts 268°
2026-04-30 22:13 51.51923 13.74731 28016 ft 478 kts 268°
2026-04-30 22:13 51.51563 13.69490 27884 ft 478 kts 268°
2026-04-30 22:14 51.51197 13.64192 27751 ft 477 kts 268°
2026-04-30 22:14 51.50829 13.58908 27618 ft 476 kts 268°
2026-04-30 22:14 51.50460 13.53642 27464 ft 475 kts 268°
2026-04-30 22:14 51.50090 13.48370 27340 ft 474 kts 268°
2026-04-30 22:15 51.49717 13.43095 27216 ft 483 kts 268°
2026-04-30 22:15 51.49332 13.37648 27121 ft 497 kts 268°
2026-04-30 22:15 51.48932 13.32102 26994 ft 502 kts 267°
2026-04-30 22:15 51.48523 13.26538 26841 ft 501 kts 267°
2026-04-30 22:16 51.48111 13.21017 26671 ft 497 kts 267°
2026-04-30 22:16 51.47698 13.15508 26527 ft 495 kts 267°
2026-04-30 22:17 51.46465 12.99150 26055 ft 490 kts 267°
2026-04-30 22:17 51.46052 12.93738 25907 ft 488 kts 266°
2026-04-30 22:17 51.45222 12.82950 25612 ft 487 kts 266°
2026-04-30 22:18 51.44804 12.77564 25466 ft 486 kts 266°
2026-04-30 22:18 51.43966 12.66901 25172 ft 485 kts 266°
2026-04-30 22:19 51.43173 12.56173 24558 ft 483 kts 270°
2026-04-30 22:19 51.43102 12.50875 24297 ft 465 kts 276°
2026-04-30 22:19 51.43568 12.40943 24051 ft 435 kts 279°
2026-04-30 22:20 51.43805 12.36120 23928 ft 433 kts 279°
2026-04-30 22:20 51.44251 12.26510 23691 ft 432 kts 278°
2026-04-30 22:20 51.44459 12.21744 23588 ft 425 kts 278°
2026-04-30 22:21 51.44659 12.17023 23331 ft 423 kts 278°
2026-04-30 22:21 51.44859 12.12271 22726 ft 430 kts 278°
2026-04-30 22:21 51.45058 12.07472 22509 ft 431 kts 278°
2026-04-30 22:21 51.45254 12.02673 22431 ft 433 kts 278°
2026-04-30 22:22 51.45456 11.97746 22453 ft 454 kts 278°
2026-04-30 22:22 51.45662 11.92685 22443 ft 463 kts 277°
2026-04-30 22:22 51.45865 11.87530 22434 ft 462 kts 277°
2026-04-30 22:22 51.46063 11.82374 22427 ft 464 kts 277°
2026-04-30 22:23 51.46261 11.77207 22431 ft 464 kts 277°
2026-04-30 22:23 51.46457 11.72025 22606 ft 467 kts 277°
2026-04-30 22:23 51.46652 11.66820 23664 ft 466 kts 277°
2026-04-30 22:23 51.46842 11.61659 24908 ft 459 kts 277°
2026-04-30 22:24 51.47027 11.56588 26124 ft 452 kts 277°
2026-04-30 22:24 51.47209 11.51593 27317 ft 447 kts 277°
2026-04-30 22:24 51.47391 11.46606 28165 ft 450 kts 277°
2026-04-30 22:24 51.47573 11.41591 28469 ft 451 kts 277°
2026-04-30 22:25 51.47753 11.36524 28451 ft 462 kts 277°
2026-04-30 22:25 51.47937 11.31294 28458 ft 478 kts 277°
2026-04-30 22:25 51.48288 11.20674 28435 ft 471 kts 277°
2026-04-30 22:26 51.48996 11.04835 28436 ft 474 kts 283°
2026-04-30 22:27 51.50236 10.94474 28436 ft 471 kts 285°
2026-04-30 22:27 51.52059 10.78973 28447 ft 471 kts 284°
2026-04-30 22:28 51.53693 10.63481 28423 ft 473 kts 279°
2026-04-30 22:29 51.53498 10.42245 28448 ft 475 kts 271°
2026-04-30 22:31 51.52793 10.05094 28438 ft 475 kts 271°
2026-04-30 22:32 51.52208 9.78696 28443 ft 480 kts 270°
2026-04-30 22:33 51.51842 9.62013 28424 ft 506 kts 270°
2026-04-30 22:33 51.51591 9.50726 28425 ft 505 kts 270°
2026-04-30 22:35 51.50907 9.22667 28438 ft 504 kts 270°
2026-04-30 22:36 51.47980 9.00655 28420 ft 510 kts 248°
2026-04-30 22:36 51.46583 8.95428 28426 ft 510 kts 248°
2026-04-30 22:37 51.40960 8.74544 28411 ft 512 kts 248°
2026-04-30 22:38 51.35363 8.53579 28409 ft 511 kts 248°
2026-04-30 22:39 51.31149 8.37907 28403 ft 511 kts 248°
2026-04-30 22:40 51.22685 8.06768 28406 ft 509 kts 247°
2026-04-30 22:41 51.15587 7.80979 28391 ft 506 kts 247°
2026-04-30 22:43 51.07034 7.50269 28363 ft 506 kts 246°
2026-04-30 22:44 51.01283 7.29848 28336 ft 506 kts 246°
2026-04-30 22:45 50.92626 6.99435 28252 ft 496 kts 245°
2026-04-30 22:46 50.89831 6.89699 27088 ft 475 kts 245°
2026-04-30 22:47 50.84479 6.71180 24378 ft 455 kts 244°
2026-04-30 22:47 50.81884 6.62122 22903 ft 448 kts 246°
2026-04-30 22:48 50.79600 6.53031 21518 ft 440 kts 247°
2026-04-30 22:49 50.76666 6.41154 19782 ft 432 kts 246°
2026-04-30 22:49 50.73339 6.27970 17922 ft 421 kts 246°
2026-04-30 22:50 50.68756 6.10227 15979 ft 441 kts 246°
2026-04-30 22:51 50.66897 6.02998 14680 ft 421 kts 246°
2026-04-30 22:51 50.64742 5.94629 13706 ft 402 kts 246°
2026-04-30 22:52 50.63706 5.90619 13316 ft 389 kts 246°
2026-04-30 22:52 50.61713 5.82933 12256 ft 373 kts 245°
2026-04-30 22:53 50.59774 5.75464 11186 ft 363 kts 246°
2026-04-30 22:53 50.59474 5.67895 10481 ft 347 kts 287°
2026-04-30 22:53 50.60381 5.64477 10332 ft 331 kts 295°
2026-04-30 22:54 50.62302 5.57979 10298 ft 326 kts 294°
2026-04-30 22:55 50.64984 5.48276 9253 ft 314 kts 283°
2026-04-30 22:55 50.64531 5.41613 8733 ft 309 kts 252°
2026-04-30 22:56 50.63386 5.35126 8111 ft 306 kts 252°
2026-04-30 22:56 50.61725 5.25665 7010 ft 291 kts 252°
2026-04-30 22:57 50.60680 5.19641 6372 ft 276 kts 252°
2026-04-30 22:57 50.59007 5.14843 5947 ft 243 kts 220°
2026-04-30 22:58 50.56315 5.11459 5205 ft 240 kts 193°
2026-04-30 22:59 50.52273 5.13837 4355 ft 193 kts 137°
2026-04-30 22:59 50.49881 5.18286 4102 ft 178 kts 111°